< < Back
Terminal Aerodrome Forecast


Current Version              Previous Versions:   1  2  3  4  5  6  7  8  9  

Terminal Aerodrome Forecast

698
FTUS42 KGSP 281735
TAFGSP
TAF
KGSP 281735Z 2818/2918 32007G14KT P6SM SKC
     FM282300 35005KT P6SM SKC
     FM291500 19004KT P6SM SKC=

Latest METAR

655
SAUS70 KWBC 282200 RRH
MTRGSP
METAR KGSP 282153Z 02011KT 10SM CLR 11/M12 A3005 RMK AO2 SLP178
T01111117


USA.gov is the U.S. government's official web portal to all federal, state and local government web resources and services.